Airfield :
LOGIN :

Register | Disclaimer

   EN    FR    IT 

 










Legend :    VFR   Marginal VFR   IFR   Intensive IFR   Very Intensive IFR
Visi :
Ceiling :
>= 8 km
>= 3000ft
5 to 8 km
1000 to 3000 ft
1500m to 5 km
500 to 1000 ft
800 to 1500m
200 to 500 ft
< 800m
< 200 ft
Symbols :   Thunderstorms  Fog  Heavy snow  Heavy precipitations  Wind > 20 kt
SIGMETs :     Misc.  Thunderstorms  Icing  Turbulence  Mountain Waves  Volcanic Ashes







- Airport Elevation : 1504 ft
- IATA code : PNA


LEPP - Noain Pamplona

CURRENT METAR :
  • 231930Z 33010KT CAVOK 12/M00 Q1029

EXPIRED METARs :
  • 231900Z 34012KT CAVOK 12/M00 Q1029
  • 231830Z 34012KT CAVOK 13/00 Q1029
  • 231800Z 33012KT CAVOK 14/M02 Q1028
  • 231730Z 34012KT CAVOK 15/M03 Q1028
  • 231700Z 34016KT CAVOK 15/M03 Q1028

TAF TAF LEPP
Valid from the 23 at 15:00 until the 24 at 15:00 UTC


231400Z 2315/2415 34006KT CAVOK TX19/2315Z TNM01/2407Z
TEMPO 2315/2319 34016KT
No reported NOTAMs for that airfield.



MET'MAP, your aeronautical weather chart ! - Copyright ORBIFLY December 2007 - Disclaimer

ORBIFLY MET'MAP TEAM :

Programming & Development : Alexandra Zaïnal
Concept & Development : Baudouin d'Aumeries
Co-Development & Prog : Marc-Olivier Méhu
Technical & hardware support : Manuel Goepfert

Contact : metmap@orbifly.com




SOURCES & CREDITS :

   NOAA